Location: San Antonio de Areco
(34.2500°S, 59.4670°W)
Time: 00:37:41
(UTC-03:00)

ISS - Visible Passes

Search period start: 02 May 2016 00:00
Search period end: 12 May 2016 00:00
Orbit: 402 x 405 km, 51.6° (Epoch: 01 May)

Date Brightness Start Highest point End Pass type
(mag) Time Alt. Az. Time Alt. Az. Time Alt. Az.
02 May -3.4 19:09:39 10° NW 19:12:58 79° NE 19:15:09 20° SE visible
03 May -1.2 19:54:29 10° W 19:57:05 21° SSW 19:57:44 20° SSW visible
04 May -2.0 19:01:20 10° WNW 19:04:27 37° SW 19:07:34 10° SSE visible
05 May -0.5 19:47:43 10° SW 19:48:50 11° SSW 19:49:57 10° S visible
06 May -0.9 18:53:42 10° WSW 18:56:03 18° SSW 18:58:25 10° SSE visible
